Regional Weather Roundup
Issued by NWS

Home | Current Version | Previous Version | Graphics & Text | Print | Product List | Glossary On
Versions: 1 2 3 4 5 6 7 8 9 10 11 12 13 14 15 16 17 18 19 20 21 22 23 24 25 26 27 28 29 30 31 32 33 34 35 36 37 38 39 40 41 42 43 44 45 46 47 48 49 50
000
ASUS45 KBOU 212307
RWRCO

WEATHER ROUNDUP FOR COLORADO
NATIONAL WEATHER SERVICE DENVER/BOULDER CO
400 PM MST FRI NOV 21 2014

NOTE: "FAIR" INDICATES FEW OR NO CLOUDS BELOW 12000 FEET WITH NO
SIGNIFICANT WEATHER AND/OR OBSTRUCTIONS TO VISIBILITY.

COZ001>005-013-030-031-220000-
...NORTHWEST COLORADO...

CITY           SKY/WX    TMP DP  RH WIND       PRES   REMARKS
CRAIG          CLEAR     47  19  33 CALM      30.01S
HAYDEN         CLEAR     43  18  36 S3        30.02S
MEEKER         CLEAR     49  19  30 CALM      30.01R
MOUNT WERNER   NOT AVBL
STEAMBOAT SPGS CLEAR     41  18  39 CALM      30.02S
WALDEN         PTCLDY    36  18  48 SW8       30.01S
$$

COZ006>008-011-220000-
...WEST CENTRAL VALLEYS...

CITY           SKY/WX    TMP DP  RH WIND       PRES   REMARKS
GRAND JUNCTION CLEAR     50  17  27 W6        30.01R
MONTROSE       CLEAR     50  18  28 N7        30.02S
EAGLE          CLEAR     46  18  31 SW5       30.03S
RIFLE          CLEAR     50  17  27 CALM      30.01S
DELTA          NOT AVBL
NUCLA          CLEAR     50  19  29 CALM      30.05S
$$

COZ017>023-064>068-220000-
...SOUTHWEST COLORADO...

CITY           SKY/WX    TMP DP  RH WIND       PRES   REMARKS
DURANGO        PTCLDY    49  18  29 W5        30.02S
CORTEZ         CLEAR     49  21  33 SW14      30.02R
PAGOSA SPRINGS PTCLDY    46  13  26 SW5       30.05S
TELLURIDE      PTCLDY    38  18  44 W9        30.09R
WOLF CREEK PAS CLEAR     27  14  59 SW9       30.13R WCI  17
$$

COZ009-010-012-014-032>034-037-058>063-220000-
...CENTRAL COLORADO...

CITY           SKY/WX    TMP DP  RH WIND       PRES   REMARKS
ASPEN          CLEAR     39  18  42 NW3       30.03S
BUENA VISTA    CLEAR     45  11  25 W3        30.00S
COPPER MTN     CLEAR     27   9  46 W16       30.10S WCI  14
BERTHOUD PASS  FAIR      18  12  79 NW23      30.08R WCI   0
COTTONWOOD PAS CLEAR     39   7  26 W8        30.05S
GUNNISON       CLEAR     36  18  48 CALM      30.09S
KREMMLING      PTCLDY    41  14  33 W3        30.04R
LEADVILLE      CLEAR     32  10  40 NW10      30.05R WCI  24
MONARCH PASS   CLEAR     23  14  68 SW17G23   30.20R WCI   9
SALIDA         CLEAR     46  13  26 SW12G20   30.08R
SUNLIGHT       CLEAR     30  19  64 CALM      30.11S
WILKERSON PASS CLEAR     30   5  34 NW6       30.10R WCI  24
$$

COZ069>075-220000-
...SAN LUIS VALLEY/SANGRE DE CRISTO MOUNTAINS...

CITY           SKY/WX    TMP DP  RH WIND       PRES   REMARKS
ALAMOSA        MOCLDY    43  14  31 SE5       30.03S
LA VETA PASS   CLOUDY    32  14  47 S10G20    30.07R WCI  24
SAGUACHE       PTCLDY    43  16  33 SW7       30.04S
$$

COZ035-036-038>040-220000-
...NORTHERN COLORADO FRONT RANGE...

CITY           SKY/WX    TMP DP  RH WIND       PRES   REMARKS
DENVER INTL AP PTCLDY    53  23  31 NE5       29.92S
DMNS CITY PARK   N/A     53  18  24 E3        29.92S
AURORA         MOCLDY    52  20  28 E3        29.94R
FRONT RANGE AP NOT AVBL
ERIE MUNI ARPT PTCLDY    51  22  32 CALM      29.92R
BOULDER MUN AP PTCLDY    52  27  37 CALM      29.92R
CENTENNIAL     PTCLDY    52  19  27 NE5       29.93R
BROOMFIELD     MOCLDY    54  16  22 W9        29.93R
FORT COLLINS   CLEAR     48  27  43 S3        29.93R
LONGMONT       CLEAR     48  31  51 CALM      29.94R
$$

COZ041-046-047-076>085-087-088-220000-
...PIKES PEAK/PALMER DIVIDE AND SOUTHERN FOOTHILLS...

CITY           SKY/WX    TMP DP  RH WIND       PRES   REMARKS
COLO. SPRINGS  PTCLDY    52  16  24 E6        29.95R
A. F. ACADEMY  CLEAR     51  14  22 S5        29.95R
ELLICOTT       CLEAR     50  18  28 SE6       29.94R
FALCON         NOT AVBL
FORT CARSON    CLEAR     52  20  28 S8        29.93R
LIMON          PTCLDY    51  19  28 N7        29.94R
MONUMENT HILL  CLEAR     45  16  31 CALM      29.97R
TRINIDAD       MOCLDY    50  29  44 SE3       29.95R
$$

COZ042>045-048>051-090-091-220000-
...NORTHEAST COLORADO...

CITY           SKY/WX    TMP DP  RH WIND       PRES   REMARKS
GREELEY ARPT   CLEAR     54  19  26 CALM      29.92R
AKRON          CLEAR     49  19  30 N6        29.91R
BURLINGTON     PTCLDY    52  26  36 S9        29.91R
WRAY           CLEAR     54  23  30 SE5       29.89S
STERLING       CLEAR     57  25  28 S3        29.88S
HOLYOKE        CLEAR     59  21  23 CALM      29.89S
FORT MORGAN    CLEAR     51  18  26 SE3       29.91S
$$

COZ086-089-092>099-220000-
...SOUTHEAST COLORADO...

CITY           SKY/WX    TMP DP  RH WIND       PRES   REMARKS
PUEBLO         PTCLDY    53  27  36 SE7       29.91R
LA JUNTA       MOCLDY    50  32  50 S3        29.93R
LAMAR          CLEAR     48  29  47 W6        29.92R
SPRINGFIELD      N/A     50  30  46 E5        29.94R
$$



USA.gov is the U.S. government's official web portal to all federal, state and local government web resources and services.